Temp
14 14 14 14 14 14 14 13 13 13 13 12 11 11 11 11 10 10 11 11 11 11 11 11 11 11 11 11 10 10 11 11 11 11 11 11 11 11 11 11 11 11
14 14 14 14 14 14 14 14 13 13 13 12 11 11 11 11 11 10 11 11 11 11 11 11 11 11 11 10 10 10 10 11 11 11 11 11 11 11 11 11 12 12
14 14 14 13 14 14 14 14 13 13 13 12 12 11 11 11 11 11 11 11 11 11 11 11 11 11 10 10 10 10 10 10 10 11 11 11 11 11 11 12 12 12
14 14 13 13 13 14 14 14 13 13 13 12 12 12 11 11 11 11 11 11 11 11 11 11 11 10 10 10 10 10 10 10 10 10 10 11 11 11 11 11 12 12
14 14 13 13 13 13 13 13 13 13 13 13 12 12 12 11 11 11 11 11 11 11 11 11 11 11 10 10 10 10 10 11 11 11 11 11 11 11 11 11 11 11
13 13 13 13 13 13 13 13 13 13 13 13 13 12 12 12 12 11 11 11 11 11 11 11 11 11 11 11 11 11 11 11 11 11 11 11 11 11 11 11 11 11
13 12 12 12 12 13 13 13 13 13 13 13 13 13 12 12 12 12 11 11 11 11 11 11 11 11 11 11 11 11 11 11 11 11 11 11 11 11 11 11 11 11
12 12 12 12 12 12 12 12 13 13 13 13 13 12 12 12 12 12 12 12 11 11 11 11 11 11 11 11 11 11 11 11 11 10 10 10 10 10 10 11 10 10
11 11 12 12 11 12 12 12 13 13 13 12 12 12 12 12 12 12 12 12 12 11 11 11 11 11 11 11 11 11 10 11 10 10 10 10 10 10 10 10 10 10
11 11 11 11 11 11 12 12 12 12 12 12 12 12 12 12 12 12 12 12 12 12 11 11 11 11 11 11 11 11 10 10 10 10 10 10 10 10 10 10 10 10
11 11 11 11 11 11 11 11 12 12 12 12 12 12 12 12 12 12 12 12 12 11 11 11 11 11 11 11 10 10 10 10 10 10 10 10 10 10 10 10 10 9
10 10 10 10 10 11 11 11 11 11 12 12 12 12 12 12 12 12 12 12 12 11 11 11 11 10 10 10 10 10 10 10 10 10 10 10 10 9 9 9 9 9
10 10 10 10 10 10 11 11 11 11 11 12 12 12 12 12 12 12 12 11 11 11 11 10 10 10 10 10 10 10 10 10 10 10 10 10 9 9 9 9 9 9
10 10 10 10 10 10 11 11 11 11 11 11 11 12 12 11 11 11 11 11 11 11 11 11 10 10 10 10 10 10 10 10 10 9 9 9 9 9 9 9 9 9
10 10 10 10 10 10 11 11 11 11 11 11 11 11 11 11 11 11 11 11 11 11 10 10 10 10 10 10 10 10 10 10 10 9 9 9 9 9 9 9 9 9
10 10 10 10 10 10 10 11 11 11 11 11 11 11 11 11 11 11 11 10 10 10 10 10 10 10 10 10 10 10 10 10 10 10 10 9 9 9 9 9 9 9
10 10 10 10 10 10 10 10 10 11 11 11 11 11 11 10 10 10 10 10 10 10 10 9 9 9 9 10 10 10 10 10 9 10 10 10 10 9 9 9 9 9
10 10 10 10 10 10 10 10 10 10 10 10 10 10 10 10 10 10 10 10 10 10 10 9 9 9 9 9 10 10 10 9 9 9 9 9 9 9 9 9 9 9
10 10 10 10 10 9 10 10 10 10 10 10 9 9 9 9 9 10 10 10 9 9 10 9 8 8 9 9 9 9 9 9 9 9 9 9 9 9 9 9 9 9
9 9 9 9 9 9 9 9 9 9 9 9 9 8 8 9 9 9 10 10 9 9 9 8 8 8 9 9 9 9 9 9 9 9 9 9 9 9 9 9 9 8
9 9 9 9 9 9 9 9 9 9 9 9 8 8 9 9 9 9 9 9 9 9 9 9 8 8 9 9 9 9 9 9 9 9 9 9 9 9 9 9 9 9
9 9 9 9 9 9 9 9 9 9 9 9 9 9 9 9 9 9 9 9 9 9 9 9 9 9 9 9 9 8 8 8 8 8 8 8 8 8 8 8 9 8
9 9 9 9 9 9 9 9 9 9 9 9 9 9 9 9 9 9 9 9 9 9 9 9 9 8 8 8 8 8 8 8 8 8 8 8 8 8 8 8 8 8
9 9 9 9 9 9 9 9 9 9 9 9 9 9 9 9 9 9 9 9 9 9 8 8 8 8 8 8 8 8 8 8 8 8 7 7 7 7 7 7 8 8
8 9 9 9 9 9 9 9 9 9 9 9 9 9 9 9 9 9 9 8 8 8 8 8 8 8 8 8 8 8 8 7 8 7 7 7 7 7 7 7 7 7
8 8 8 9 9 9 9 9 9 9 9 9 9 9 9 9 9 8 8 8 8 8 8 8 8 8 8 8 8 8 8 8 8 7 7 7 7 7 7 7 7 7
Height
1533 1534 1536 1537 1538 1538 1539 1541 1542 1542 1543 1545 1546 1546 1546 1547 1548 1549 1549 1550 1550 1550 1551 1552 1552 1553 1553 1553 1554 1554 1555 1555 1555 1555 1556 1556 1557 1557 1557 1558 1558 1559
1532 1533 1534 1536 1537 1537 1538 1540 1542 1542 1543 1544 1546 1546 1547 1547 1548 1549 1550 1550 1550 1551 1552 1552 1553 1553 1553 1554 1554 1555 1555 1555 1556 1556 1557 1557 1557 1558 1558 1558 1559 1559
1531 1532 1533 1535 1537 1537 1538 1539 1541 1542 1543 1544 1545 1546 1547 1547 1549 1549 1550 1551 1551 1552 1552 1552 1553 1553 1554 1554 1555 1555 1555 1556 1556 1556 1557 1557 1558 1558 1558 1559 1559 1560
1530 1531 1532 1534 1536 1537 1538 1539 1541 1541 1542 1544 1545 1546 1547 1548 1549 1550 1551 1551 1551 1552 1552 1553 1553 1553 1554 1555 1555 1556 1556 1557 1557 1557 1558 1558 1558 1558 1559 1559 1560 1561
1529 1530 1532 1534 1536 1537 1538 1539 1540 1541 1542 1544 1544 1545 1546 1547 1549 1550 1551 1551 1552 1553 1553 1553 1554 1554 1554 1555 1556 1557 1557 1558 1558 1558 1559 1559 1559 1559 1559 1560 1561 1561
1528 1529 1531 1534 1535 1537 1537 1538 1539 1540 1541 1543 1544 1545 1546 1547 1548 1549 1550 1551 1552 1553 1553 1554 1554 1554 1555 1556 1556 1557 1558 1558 1559 1559 1559 1560 1560 1560 1560 1561 1562 1562
1526 1528 1530 1533 1535 1536 1537 1538 1539 1540 1541 1542 1544 1545 1546 1547 1548 1549 1550 1551 1552 1552 1553 1554 1554 1555 1555 1556 1557 1558 1558 1559 1559 1559 1560 1560 1560 1561 1561 1562 1562 1562
1526 1527 1529 1532 1534 1535 1536 1537 1538 1540 1541 1542 1543 1545 1546 1547 1548 1548 1549 1550 1551 1552 1553 1553 1554 1555 1555 1556 1557 1558 1558 1559 1559 1559 1560 1560 1561 1561 1562 1562 1562 1562
1525 1527 1528 1530 1532 1534 1535 1536 1538 1539 1541 1542 1543 1544 1546 1546 1547 1548 1549 1550 1551 1552 1553 1553 1554 1554 1555 1556 1556 1557 1558 1558 1559 1559 1559 1560 1561 1561 1562 1562 1562 1562
1524 1526 1527 1529 1531 1532 1534 1536 1537 1538 1540 1541 1542 1543 1545 1546 1546 1547 1548 1549 1550 1551 1552 1553 1554 1554 1555 1555 1556 1557 1557 1558 1558 1558 1559 1559 1560 1560 1561 1561 1562 1562
1523 1525 1526 1527 1529 1531 1533 1535 1536 1538 1539 1540 1541 1542 1544 1545 1546 1547 1548 1549 1550 1551 1552 1553 1553 1554 1554 1555 1555 1556 1557 1557 1558 1558 1558 1558 1559 1559 1560 1560 1561 1561
1521 1523 1524 1526 1527 1529 1531 1533 1535 1536 1538 1539 1540 1541 1542 1544 1545 1546 1547 1548 1549 1550 1551 1552 1552 1553 1553 1553 1554 1555 1555 1556 1557 1557 1558 1558 1558 1558 1559 1559 1560 1560
1520 1522 1523 1525 1526 1528 1530 1531 1533 1535 1536 1538 1539 1540 1541 1542 1544 1545 1546 1547 1548 1549 1549 1550 1551 1551 1552 1552 1553 1553 1554 1554 1555 1556 1556 1557 1557 1557 1558 1558 1559 1559
1519 1521 1522 1523 1525 1527 1528 1530 1531 1533 1534 1536 1537 1538 1540 1541 1542 1543 1544 1546 1547 1547 1547 1548 1549 1550 1550 1551 1552 1552 1553 1553 1554 1554 1555 1555 1556 1556 1557 1557 1557 1558
1519 1520 1521 1522 1524 1526 1527 1528 1530 1531 1532 1534 1535 1537 1538 1539 1541 1541 1542 1543 1544 1545 1546 1547 1547 1548 1548 1549 1550 1551 1551 1552 1552 1553 1553 1553 1554 1554 1555 1555 1556 1556
1519 1519 1520 1521 1523 1524 1526 1527 1528 1530 1531 1532 1533 1535 1536 1537 1538 1539 1540 1541 1542 1542 1544 1545 1546 1546 1546 1547 1548 1549 1549 1549 1550 1551 1551 1551 1551 1552 1552 1553 1553 1554
1518 1519 1520 1521 1522 1523 1524 1525 1527 1527 1529 1530 1531 1532 1533 1534 1535 1536 1537 1538 1539 1540 1541 1542 1544 1544 1544 1545 1546 1546 1546 1547 1547 1548 1548 1549 1549 1549 1550 1551 1551 1551
1518 1518 1519 1520 1521 1522 1523 1524 1524 1525 1526 1527 1528 1529 1530 1531 1533 1533 1534 1535 1536 1537 1538 1539 1541 1542 1542 1543 1543 1543 1543 1544 1545 1546 1546 1547 1547 1547 1548 1548 1548 1549
1517 1518 1518 1519 1520 1521 1521 1522 1522 1523 1524 1525 1525 1526 1528 1530 1531 1531 1531 1532 1533 1534 1535 1536 1538 1539 1539 1540 1540 1540 1541 1542 1543 1544 1544 1545 1545 1545 1545 1546 1546 1546
1517 1518 1518 1518 1519 1519 1520 1520 1521 1521 1522 1523 1523 1524 1526 1528 1528 1527 1528 1528 1529 1531 1532 1533 1535 1536 1537 1537 1538 1538 1539 1540 1541 1542 1542 1543 1543 1543 1543 1543 1544 1544
1517 1517 1517 1518 1518 1518 1519 1519 1519 1520 1520 1521 1521 1522 1524 1525 1525 1525 1526 1526 1527 1529 1530 1531 1532 1533 1534 1535 1536 1537 1538 1539 1540 1540 1541 1541 1541 1541 1541 1542 1542 1543
1518 1517 1517 1517 1517 1517 1518 1518 1518 1519 1519 1519 1520 1521 1522 1523 1523 1524 1525 1526 1527 1528 1528 1529 1530 1531 1533 1533 1534 1536 1537 1537 1538 1538 1539 1539 1540 1540 1540 1541 1541 1541
1517 1517 1517 1516 1517 1517 1517 1517 1518 1518 1518 1519 1519 1520 1521 1522 1523 1524 1524 1525 1526 1527 1528 1528 1529 1530 1531 1532 1533 1534 1535 1536 1537 1537 1538 1538 1539 1539 1539 1539 1540 1540
1516 1516 1515 1515 1516 1516 1516 1516 1517 1517 1517 1518 1519 1519 1520 1521 1522 1523 1524 1525 1525 1526 1527 1527 1528 1529 1530 1531 1532 1533 1534 1535 1535 1536 1537 1537 1537 1538 1538 1538 1538 1538
1514 1514 1514 1514 1515 1516 1516 1515 1516 1516 1517 1517 1518 1519 1520 1520 1521 1522 1523 1523 1524 1524 1525 1526 1527 1528 1528 1529 1530 1531 1532 1533 1534 1534 1535 1535 1536 1536 1536 1536 1536 1536
1512 1512 1512 1513 1514 1515 1514 1514 1515 1516 1516 1517 1517 1518 1519 1519 1520 1520 1521 1522 1522 1523 1524 1524 1525 1526 1527 1527 1528 1529 1530 1531 1532 1532 1533 1533 1533 1533 1533 1534 1534 1534
Wind_Speed
8 7 5 4 5 3 3 4 3 3 3 5 5 5 6 8 8 7 8 9 10 10 10 9 9 9 10 10 10 10 10 10 10 11 11 11 12 12 12 13 13 12
10 9 8 7 7 4 5 4 0 1 2 5 5 5 6 7 8 8 8 9 9 9 9 8 9 10 10 10 9 9 9 10 11 12 11 11 12 12 13 14 14 14
14 14 12 9 7 6 8 7 3 3 2 4 5 6 6 7 7 7 7 8 7 7 7 8 9 10 10 10 9 9 9 10 11 12 13 13 13 13 14 15 15 16
18 17 15 12 9 8 9 9 6 4 2 3 5 5 5 6 6 6 6 6 6 6 6 7 8 9 10 10 9 9 9 10 12 12 13 14 14 14 14 14 15 15
19 18 17 14 11 10 10 10 8 6 5 3 4 4 5 6 6 6 5 5 5 5 6 6 7 8 9 9 10 10 10 10 11 11 11 12 13 13 13 13 12 13
18 19 18 15 13 13 12 11 9 9 9 7 4 4 4 6 6 6 6 5 5 5 5 6 6 7 8 8 9 9 9 9 9 10 10 10 10 10 10 10 9 9
18 19 18 14 14 14 12 11 11 13 12 9 6 5 5 6 7 7 7 6 6 5 5 5 5 6 6 6 7 7 7 7 7 7 7 7 7 7 6 6 6 5
19 19 17 15 15 15 13 12 13 15 15 12 8 7 6 6 7 7 7 6 6 5 5 4 4 5 5 5 5 5 5 5 5 5 5 5 5 4 4 4 3 3
18 18 17 16 16 16 14 13 14 16 16 14 10 9 8 7 8 8 7 7 6 6 5 5 4 4 4 4 4 3 3 3 3 3 3 3 4 4 3 3 3 2
18 18 18 17 17 18 15 14 15 17 17 16 13 12 11 9 9 9 9 8 7 6 6 5 5 5 4 3 2 1 1 0 1 1 1 1 2 2 2 3 3 3
16 17 18 18 18 19 17 16 16 16 17 18 16 14 13 11 11 11 10 10 8 7 6 6 6 5 4 3 2 2 2 2 3 2 2 2 1 1 1 2 3 4
15 16 17 17 17 18 18 19 20 17 17 17 16 16 15 13 13 13 12 11 10 10 9 8 7 7 6 6 5 5 4 4 5 5 5 5 4 3 3 3 4 5
12 13 14 15 15 15 17 21 21 19 18 17 17 18 17 15 16 16 15 14 14 13 13 12 11 10 10 9 8 7 7 7 7 7 8 8 7 7 6 5 6 7
9 10 11 12 13 13 15 19 21 20 19 19 19 20 19 17 17 17 17 16 16 16 16 15 15 14 13 12 10 10 9 9 10 10 11 11 11 11 10 9 8 8
8 9 10 11 12 14 16 17 18 19 20 20 20 21 20 19 18 18 18 17 17 17 17 17 16 17 16 14 13 13 13 13 14 14 14 14 14 15 15 14 13 12
7 8 9 10 10 13 16 17 18 19 20 22 22 22 21 20 19 19 19 19 18 18 17 17 18 19 19 17 17 18 19 18 17 17 17 17 17 17 17 17 16 15
4 7 9 11 11 12 14 16 18 20 21 23 24 24 23 23 22 21 21 20 20 19 18 16 17 19 19 19 19 21 22 21 20 19 18 18 17 17 17 16 16 17
4 6 8 10 12 13 14 14 16 18 21 23 25 25 24 23 22 22 22 23 23 24 25 23 21 20 19 20 21 21 20 18 17 17 15 14 14 13 13 13 15 16
7 8 8 9 11 13 15 15 16 17 19 21 23 24 23 21 23 24 25 26 25 23 25 27 24 19 18 19 19 18 16 14 13 13 12 12 12 12 11 12 12 14
6 7 9 10 12 13 15 16 18 19 19 20 22 21 18 17 20 22 21 22 21 17 16 19 19 16 14 15 15 13 12 11 11 11 10 10 10 10 10 11 12 13
3 3 5 7 10 12 14 15 17 17 17 18 19 16 11 10 14 14 12 12 13 12 11 12 14 14 13 13 12 11 10 10 9 9 9 9 9 9 9 9 10 12
4 4 4 4 6 8 11 13 14 14 13 13 11 10 9 10 11 11 11 11 10 10 10 11 11 11 11 10 10 9 9 9 8 8 7 7 7 7 6 7 8 9
5 5 4 3 5 6 7 9 10 10 9 8 8 8 10 11 10 10 11 11 10 11 10 10 9 10 10 10 10 9 9 8 8 7 7 6 6 5 5 6 6 7
6 6 4 2 2 5 7 8 8 8 8 8 8 9 10 11 10 10 11 11 11 11 10 9 10 10 10 10 10 10 10 9 8 8 8 7 6 5 5 5 4 5
11 11 8 6 4 5 5 6 7 8 9 9 10 10 11 12 11 10 11 12 12 11 11 10 10 10 10 11 11 11 11 10 9 9 8 7 6 5 5 4 4 4
16 16 14 13 12 9 6 6 7 9 10 11 12 12 12 12 12 12 11 11 10 10 9 9 9 9 9 9 9 10 10 10 9 9 8 7 6 6 6 6 6 5
Wind_Direction
221 223 224 202 173 151 358 11 47 12 39 86 72 73 105 123 123 116 114 116 118 118 115 113 113 111 109 107 105 105 107 111 114 112 112 115 115 116 117 118 118 118
240 242 231 201 185 210 295 310 87 66 64 87 83 82 106 129 132 129 130 129 128 125 121 119 118 116 113 108 104 103 105 109 111 109 109 112 113 114 115 114 114 113
262 258 239 218 211 242 274 270 206 147 91 90 93 91 108 131 138 139 138 137 135 129 122 118 116 114 112 110 109 109 112 115 116 115 115 114 113 112 113 113 114 114
267 260 243 229 225 238 254 242 204 162 125 102 98 101 113 128 140 145 144 143 142 133 122 116 114 112 110 109 108 110 115 119 120 120 119 116 113 112 112 112 115 117
263 255 241 235 231 230 230 226 209 180 165 145 115 112 122 131 138 144 147 148 145 136 127 119 113 109 106 104 103 103 106 109 110 110 109 109 108 108 109 110 115 120
252 244 237 236 234 227 219 217 209 188 178 173 156 143 141 142 141 140 141 143 142 136 127 121 113 107 104 101 101 102 102 101 100 98 95 93 94 95 99 103 107 112
242 240 241 239 231 223 217 213 206 193 187 183 175 174 171 161 153 146 144 143 142 140 131 122 113 104 101 97 95 97 99 97 94 91 87 84 82 80 80 86 89 93
238 243 248 244 233 224 219 216 208 200 199 197 189 190 191 181 170 159 154 150 146 147 145 138 129 117 112 106 96 90 85 83 79 74 69 65 62 61 59 62 68 72
239 243 245 244 238 225 219 220 212 202 203 206 204 208 209 201 190 182 176 170 163 163 161 154 147 136 129 124 114 107 96 84 79 69 60 51 42 37 32 28 31 35
240 242 242 244 239 226 218 221 213 203 205 209 211 214 217 214 205 200 198 190 182 177 175 173 168 159 152 145 132 128 146 179 174 153 120 75 42 23 13 0 351 345
239 241 242 243 238 230 227 223 213 206 209 212 213 213 217 221 216 211 209 204 201 199 196 196 192 186 183 181 191 225 251 266 260 244 231 217 217 264 322 325 322 320
235 238 238 236 234 234 233 223 214 212 214 217 218 214 216 223 223 219 218 215 215 213 210 214 217 217 215 214 219 229 242 260 264 258 252 242 234 235 249 273 284 288
231 231 230 230 229 230 224 216 213 215 219 224 224 217 216 222 226 227 227 223 222 221 219 222 225 227 229 231 234 237 241 251 259 263 262 257 253 252 249 252 265 273
233 231 228 225 222 219 214 213 215 217 221 228 229 222 219 222 226 230 230 229 228 226 224 225 228 233 237 239 245 252 253 257 262 264 264 261 259 258 256 253 258 269
234 236 234 230 225 222 219 217 219 221 223 229 232 229 227 230 234 236 235 236 235 231 231 233 234 235 238 244 253 258 258 260 263 264 263 263 261 259 258 255 255 260
227 234 239 242 237 232 229 226 227 229 229 231 234 235 236 240 244 244 243 243 241 239 243 249 251 248 246 251 259 263 262 260 261 262 262 264 265 264 262 259 258 259
223 235 242 248 247 242 236 233 234 236 235 235 236 238 241 245 249 250 250 249 245 242 246 256 267 262 252 250 258 265 265 259 257 261 266 268 268 267 265 263 262 263
238 241 245 248 249 246 242 239 240 240 240 239 240 241 242 246 252 253 253 255 255 252 252 258 268 268 258 255 258 260 257 254 255 260 265 267 267 267 267 265 264 264
249 248 247 246 246 245 245 246 247 247 248 247 247 248 248 249 253 255 257 260 259 256 253 253 255 257 256 253 250 247 245 245 249 255 259 263 266 269 269 266 264 263
255 255 256 254 251 248 248 249 251 253 254 253 252 256 259 253 248 250 254 254 248 242 241 238 236 235 234 232 230 228 230 233 240 249 259 266 269 270 270 266 262 259
284 273 268 265 261 257 254 254 254 253 252 250 250 252 247 227 222 226 226 221 218 217 215 214 216 214 210 210 213 216 223 232 242 251 258 263 267 268 270 268 263 259
308 302 294 285 275 264 257 254 254 253 249 243 237 228 211 198 198 199 197 194 192 190 190 193 196 195 194 202 213 221 233 241 245 248 252 256 261 262 262 262 260 257
284 278 277 284 282 273 264 259 257 254 248 238 224 209 201 200 197 190 188 188 186 185 188 193 196 198 203 212 217 222 230 234 235 239 243 245 247 252 256 257 257 256
260 247 235 233 271 269 260 257 256 251 243 233 221 210 203 201 201 196 189 187 189 193 200 206 209 213 215 216 215 216 218 222 227 229 231 234 238 245 254 257 259 259
267 264 255 244 261 273 258 250 248 236 222 211 204 204 205 203 201 201 198 197 199 204 212 218 220 222 221 218 218 216 216 220 226 227 227 231 236 248 265 284 295 295
274 274 270 263 262 266 262 254 246 229 217 211 205 204 207 206 202 203 205 206 206 206 210 216 217 219 221 223 224 226 227 227 228 232 238 242 249 263 277 291 301 305